Regional Weather Roundup
Issued by NWS Portland, ME

Current Version | Previous Version | Text Only | Print | Product List | Glossary Off
Versions: 1 2 3 4 5 6 7 8 9 10 11 12 13 14 15 16 17 18 19 20 21 22 23 24 25 26 27 28 29 30 31 32 33 34 35 36 37 38 39 40 41 42 43 44 45 46 47 48 49 50
525 ASUS41 KGYX 280005 RWRGYX WEATHER ROUNDUP FOR MAINE AND NEW HAMPSHIRE NATIONAL WEATHER SERVICE GRAY ME 800 PM EDT SAT MAY 27 2017 MEZ002-005-006-010-012-015-018-020-021-024-026-027-029-280100- MAINE CITY SKY/WX TMP DP RH WIND PRES REMARKS PORTLAND PTCLDY 51 46 83 S7 29.91R 6HR MIN TEMP: 51; 6HR MAX TEMP: 63; SANFORD CLEAR 53 47 79 S6 29.91R BAR HARBOR MOCLDY 49 45 86 SW6 29.92R WISCASSET CLEAR 53 47 79 CALM 29.92S 6HR MIN TEMP: 53; 6HR MAX TEMP: 67; ROCKLAND PTCLDY 46 44 93 SW6 29.92S FRYEBURG CLEAR 63 52 67 S5 29.87R 6HR MIN TEMP: 63; 6HR MAX TEMP: 72; LEWISTONAUBURN CLEAR 54 47 77 S7 29.90R AUGUSTA CLEAR 54 45 71 S7 29.90R 6HR MIN TEMP: 54; 6HR MAX TEMP: 68; WATERVILLE CLEAR 58 49 72 S7 29.86R BANGOR PTCLDY 58 48 69 SE7 29.89R 6HR MIN TEMP: 58; 6HR MAX TEMP: 64; GREENVILLE N/A 55 43 63 NE3 29.87R 6HR MIN TEMP: 55; 6HR MAX TEMP: 62; MILLINOCKET CLOUDY 58 49 72 E7 29.89R 6HR MIN TEMP: 58; 6HR MAX TEMP: 65; HOULTON PTCLDY 50 44 80 VRB6 29.90R 6HR MIN TEMP: 50; 6HR MAX TEMP: 63; PRESQUE ISLE CLEAR 57 47 69 S13G21 29.89R 6HR MIN TEMP: 57; 6HR MAX TEMP: 65; FRENCHVILLE PTCLDY 60 41 49 S3 29.85R 6HR MIN TEMP: 60; 6HR MAX TEMP: 66; CARIBOU CLEAR 60 46 59 S5 29.86R 6HR MIN TEMP: 59; 6HR MAX TEMP: 67; $$ NHZ002-005-008-009-011-012-014-280100- NEW HAMPSHIRE CITY SKY/WX TMP DP RH WIND PRES REMARKS PORTSMOUTH MOCLDY 52 46 80 SE8 29.90R ROCHESTER CLEAR 54 46 74 SE6 29.89R 6HR MIN TEMP: 54; 6HR MAX TEMP: 68; NASHUA CLOUDY 63 51 65 SE9G16 29.89R MANCHESTER CLOUDY 63 49 60 SE10 29.87R 6HR MIN TEMP: 63; 6HR MAX TEMP: 72; CONCORD CLOUDY 61 52 72 SE7 29.88R 6HR MIN TEMP: 61; 6HR MAX TEMP: 74; LACONIA PTCLDY 64 53 67 S5 29.87R PLYMOUTH FAIR 66 49 53 CALM 29.87R BERLIN CLEAR 65 42 43 CALM 29.87R 6HR MIN TEMP: 65; 6HR MAX TEMP: 72; WHITEFIELD MOCLDY 64 46 52 SW3 29.88R 6HR MIN TEMP: 64; 6HR MAX TEMP: 69; JAFFREY CLOUDY 64 58 80 CALM 29.89R 6HR MIN TEMP: 64; 6HR MAX TEMP: 70; KEENE CLOUDY 63 55 75 CALM 29.88R HAZE LEBANON CLOUDY 63 57 81 CALM 29.87R 6HR MIN TEMP: 63; 6HR MAX TEMP: 72; MT WASHINGTON PTCLDY 39 39 98 NW17 N/A 6HR MIN TEMP: 37; 6HR MAX TEMP: 43; $$ VTZ005-007-008-280100- VERMONT CITY SKY/WX TMP DP RH WIND PRES REMARKS ST JOHNSBURY N/A 64 50 60 MISG 29.86R MONTPELIER CLOUDY 62 50 64 W3 29.92S BURLINGTON PTCLDY 66 50 56 SW5 29.87S $$ MAZ007-012-024-CTZ003-RIZ002-NYZ038-NYZ072-280100- SOUTHERN NEW ENGLAND AND NY CITY SKY/WX TMP DP RH WIND PRES REMARKS BOSTON MOCLDY 56 48 74 SE9 29.91R WORCESTER CLOUDY 62 51 67 W6 29.90R NANTUCKET CLOUDY 52 45 77 E3 29.93R PROVIDENCE MOCLDY 61 54 77 S6 29.90R HARTFORD CLOUDY 66 50 56 SW6 29.89R ALBANY MOCLDY 68 50 52 CALM 29.88R NEW YORK CITY CLOUDY 68 55 63 SE10 29.88R $$ ANZ081-ANZ082-ANZ150-NHZ014-MEZ023>029-280100- COASTAL MARINE OBSERVATIONS STATION/POSITION TIME TEMP WIND PRES WAVE AIR SEA DIR/SP/G HT/PER (UTC) (F) (DEG/KT/KT) (MB) (FT/S) MOUNT DESERT ROC 2300 46 1013.1R MATINICUS ROCK 2300 46 220/ 7/ 8 1012.7R ISLE OF SHOALS 2300 51 150/ 12/ 13 1012.3R JEFFREYS LEDGE 2306 49 N/A 3/ 8 CASHES LEDGE BUO 2250 48 48 1013.1 4/ 9 GEORGES BANK BUO 2250 48 48 1011.4 6/10 $$ .............KEY.............. WCI - WIND CHILL TC - TEMPERATURE IN CELSIUS VSB - VISIBILITY IN MILES HX - HEAT INDEX FAIR- INDICATES FEW OR NO CLOUDS BELOW 12,000 FT, WITH NO SIGNIFICANT WEATHER AND/OR OBSTRUCTIONS TO VISIBILITY.

USA.gov is the U.S. government's official web portal to all federal, state and local government web resources and services.